^^
Datos históricos de la estación: Murcia-Puente Tocinos
Diario Informe para Marzo 22, 2017 Unidades:  Métrico    Inglés   Ambas
« Anterior Día
Siguiente Día »
Diario Semanal Mensual Anual Configurable
  Máximo: Mínimo: Media:
Temperatura: 21.6 °C 13.2 °C 17.2 °C
Punto de rocio: 8.6 °C 1.1 °C 6.1 °C
Humedad: 62% 35% 49%
Velocidad viento: 22.0km/h 2.3km/h 8.6km/h
Racha viento: 38.9km/h - -
Viento- - SSO
Presión: 1014.4 hPa 1007.7 hPa -
Precipitación: 0.0 mm    
Historical Graphs
 
 
Tabla de datos para Marzo 22, 2017
Hora Temperatura Punto de rocio Presión Viento Velocidad viento Racha viento Humedad Intensidad lluvia(por hora) Nubes
00:02 17.8 °C 5.7 °C 1014.1 hPa West 9.5 km/h 15.6 km/h 45% 0.0 mm CLR
00:07 17.8 °C 5.7 °C 1014.1 hPa SW 9.5 km/h 14.0 km/h 45% 0.0 mm CLR
00:12 17.7 °C 5.9 °C 1014.1 hPa West 9.5 km/h 13.0 km/h 46% 0.0 mm CLR
00:18 17.6 °C 5.8 °C 1014.1 hPa SW 8.7 km/h 13.0 km/h 46% 0.0 mm CLR
00:23 17.5 °C 5.7 °C 1014.1 hPa SW 8.7 km/h 10.3 km/h 46% 0.0 mm CLR
00:28 17.4 °C 5.7 °C 1014.1 hPa WSW 7.6 km/h 11.1 km/h 46% 0.0 mm CLR
00:33 17.3 °C 5.9 °C 1014.1 hPa West 7.6 km/h 13.0 km/h 47% 0.0 mm CLR
00:38 17.2 °C 5.8 °C 1014.4 hPa SW 6.4 km/h 11.1 km/h 47% 0.0 mm CLR
00:43 17.1 °C 5.7 °C 1014.4 hPa WSW 6.4 km/h 7.4 km/h 47% 0.0 mm CLR
00:48 17.1 °C 6.0 °C 1014.4 hPa WSW 4.7 km/h 7.4 km/h 48% 0.0 mm CLR
00:53 16.9 °C 5.8 °C 1014.4 hPa WSW 4.7 km/h 7.4 km/h 48% 0.0 mm CLR
00:58 16.8 °C 6.0 °C 1014.4 hPa WSW 4.7 km/h 7.4 km/h 49% 0.0 mm CLR
01:03 16.7 °C 5.9 °C 1014.4 hPa WSW 4.7 km/h 7.4 km/h 49% 0.0 mm CLR
01:08 16.7 °C 5.9 °C 1014.4 hPa SW 5.0 km/h 11.1 km/h 49% 0.0 mm CLR
01:13 16.8 °C 5.7 °C 1014.4 hPa SW 5.0 km/h 14.8 km/h 48% 0.0 mm CLR
01:18 16.7 °C 5.6 °C 1014.4 hPa SSW 9.5 km/h 20.4 km/h 48% 0.0 mm CLR
01:23 16.6 °C 5.8 °C 1014.1 hPa SW 9.5 km/h 16.7 km/h 49% 0.0 mm CLR
01:28 16.4 °C 5.7 °C 1014.1 hPa SSW 10.3 km/h 13.0 km/h 49% 0.0 mm CLR
01:33 16.3 °C 5.6 °C 1014.1 hPa South 10.3 km/h 11.1 km/h 49% 0.0 mm CLR
01:38 16.3 °C 5.8 °C 1014.4 hPa South 8.4 km/h 13.0 km/h 50% 0.0 mm CLR
01:43 16.1 °C 5.7 °C 1014.4 hPa SSW 8.4 km/h 13.0 km/h 50% 0.0 mm CLR
01:48 16.0 °C 5.8 °C 1014.4 hPa SSW 9.5 km/h 14.8 km/h 51% 0.0 mm CLR
01:53 15.9 °C 5.8 °C 1014.1 hPa SSW 9.5 km/h 16.7 km/h 51% 0.0 mm CLR
01:58 15.9 °C 5.8 °C 1014.1 hPa SW 8.7 km/h 13.0 km/h 51% 0.0 mm CLR
02:03 15.9 °C 5.5 °C 1014.1 hPa SW 8.7 km/h 13.0 km/h 50% 0.0 mm CLR
02:08 15.9 °C 5.5 °C 1014.1 hPa WSW 8.4 km/h 16.7 km/h 50% 0.0 mm CLR
02:13 16.0 °C 5.3 °C 1014.1 hPa SW 8.4 km/h 16.7 km/h 49% 0.0 mm CLR
02:18 16.0 °C 5.3 °C 1014.1 hPa SW 10.3 km/h 11.1 km/h 49% 0.0 mm FEW
02:23 15.9 °C 5.2 °C 1014.4 hPa SSW 10.3 km/h 13.0 km/h 49% 0.0 mm FEW
02:28 15.9 °C 5.2 °C 1014.4 hPa SSW 7.6 km/h 9.3 km/h 49% 0.0 mm FEW
02:33 15.9 °C 5.2 °C 1014.4 hPa SSW 7.6 km/h 9.3 km/h 49% 0.0 mm FEW
02:38 15.9 °C 5.2 °C 1014.4 hPa South 6.4 km/h 10.3 km/h 49% 0.0 mm FEW
02:43 15.8 °C 5.1 °C 1014.4 hPa South 6.4 km/h 11.1 km/h 49% 0.0 mm FEW
02:48 15.8 °C 5.4 °C 1014.4 hPa SW 6.9 km/h 7.4 km/h 50% 0.0 mm FEW
02:53 15.7 °C 5.6 °C 1014.4 hPa WNW 6.9 km/h 7.6 km/h 51% 0.0 mm FEW
02:58 15.3 °C 5.5 °C 1014.4 hPa WNW 5.0 km/h 9.3 km/h 52% 0.0 mm FEW
03:03 14.9 °C 5.4 °C 1014.4 hPa West 5.0 km/h 11.1 km/h 53% 0.0 mm FEW
03:08 14.7 °C 5.5 °C 1014.1 hPa West 6.4 km/h 11.1 km/h 54% 0.0 mm FEW
03:13 14.6 °C 5.7 °C 1014.1 hPa West 6.4 km/h 9.3 km/h 55% 0.0 mm FEW
03:18 14.6 °C 5.7 °C 1014.1 hPa WSW 6.4 km/h 7.4 km/h 55% 0.0 mm FEW
03:23 14.6 °C 5.7 °C 1014.1 hPa SW 6.4 km/h 7.4 km/h 55% 0.0 mm FEW
03:28 14.6 °C 5.7 °C 1014.1 hPa SSW 5.0 km/h 5.0 km/h 55% 0.0 mm FEW
03:33 14.7 °C 5.5 °C 1014.1 hPa SSW 5.0 km/h 5.0 km/h 54% 0.0 mm FEW
03:38 14.7 °C 5.5 °C 1014.1 hPa SSW 2.9 km/h 5.6 km/h 54% 0.0 mm FEW
03:43 14.8 °C 5.6 °C 1014.1 hPa SSW 2.9 km/h 3.7 km/h 54% 0.0 mm FEW
03:48 14.8 °C 5.3 °C 1014.1 hPa SSW 3.2 km/h 5.8 km/h 53% 0.0 mm FEW
03:53 14.9 °C 5.4 °C 1013.8 hPa SSW 3.2 km/h 5.6 km/h 53% 0.0 mm FEW
03:58 15.0 °C 5.2 °C 1013.8 hPa SW 3.9 km/h 7.4 km/h 52% 0.0 mm FEW
04:03 15.1 °C 5.6 °C 1013.8 hPa SW 3.9 km/h 3.9 km/h 53% 0.0 mm FEW
04:08 15.1 °C 5.6 °C 1014.1 hPa West 3.2 km/h 3.7 km/h 53% 0.0 mm FEW
04:13 14.9 °C 5.4 °C 1014.1 hPa West 3.2 km/h 3.7 km/h 53% 0.0 mm FEW
04:18 14.8 °C 5.3 °C 1014.1 hPa WSW 2.3 km/h 5.6 km/h 53% 0.0 mm FEW
04:23 14.8 °C 5.6 °C 1013.8 hPa WSW 2.3 km/h 3.7 km/h 54% 0.0 mm FEW
04:28 14.8 °C 5.3 °C 1013.8 hPa WSW 2.9 km/h 3.9 km/h 53% 0.0 mm FEW
04:33 14.8 °C 5.3 °C 1013.8 hPa SW 2.9 km/h 3.7 km/h 53% 0.0 mm FEW
04:38 14.7 °C 5.5 °C 1014.1 hPa WNW 3.2 km/h 5.6 km/h 54% 0.0 mm FEW
04:43 14.6 °C 5.9 °C 1014.1 hPa NW 3.2 km/h 3.9 km/h 56% 0.0 mm FEW
04:48 14.3 °C 5.6 °C 1014.1 hPa WNW 3.2 km/h 5.6 km/h 56% 0.0 mm FEW
04:53 14.1 °C 5.4 °C 1013.8 hPa West 3.2 km/h 3.7 km/h 56% 0.0 mm FEW
04:58 14.0 °C 5.6 °C 1013.8 hPa West 3.2 km/h 3.7 km/h 57% 0.0 mm FEW
05:03 13.9 °C 5.5 °C 1013.8 hPa SW 3.2 km/h 5.0 km/h 57% 0.0 mm FEW
05:08 13.9 °C 5.8 °C 1013.8 hPa South 2.9 km/h 5.8 km/h 58% 0.0 mm CLR
05:13 13.9 °C 5.5 °C 1013.8 hPa South 2.9 km/h 13.0 km/h 57% 0.0 mm FEW
05:18 14.1 °C 5.7 °C 1013.8 hPa SSW 5.8 km/h 9.3 km/h 57% 0.0 mm FEW
05:23 14.1 °C 5.4 °C 1013.8 hPa SSE 5.8 km/h 7.4 km/h 56% 0.0 mm FEW
05:28 14.1 °C 5.4 °C 1013.8 hPa South 5.8 km/h 7.4 km/h 56% 0.0 mm FEW
05:33 14.1 °C 5.4 °C 1013.8 hPa SSW 5.8 km/h 5.8 km/h 56% 0.0 mm FEW
05:38 14.1 °C 5.4 °C 1013.4 hPa SSW 4.7 km/h 4.7 km/h 56% 0.0 mm FEW
05:43 14.1 °C 5.7 °C 1013.4 hPa SW 4.7 km/h 4.7 km/h 57% 0.0 mm FEW
05:48 14.1 °C 5.4 °C 1013.4 hPa SSW 2.9 km/h 5.6 km/h 56% 0.0 mm FEW
05:53 14.1 °C 5.7 °C 1013.4 hPa SSW 2.9 km/h 3.7 km/h 57% 0.0 mm FEW
05:58 14.0 °C 5.8 °C 1013.4 hPa WNW 2.9 km/h 3.9 km/h 58% 0.0 mm FEW
06:03 13.8 °C 5.9 °C 1013.4 hPa NNW 2.9 km/h 3.9 km/h 59% 0.0 mm FEW
06:08 13.6 °C 5.7 °C 1013.4 hPa NW 2.9 km/h 5.6 km/h 59% 0.0 mm FEW
06:13 13.3 °C 5.4 °C 1013.4 hPa NNW 2.9 km/h 2.9 km/h 59% 0.0 mm FEW
06:18 13.2 °C 5.8 °C 1013.4 hPa NNW 2.9 km/h 3.7 km/h 61% 0.0 mm FEW
06:24 13.2 °C 6.1 °C 1013.4 hPa SSE 2.9 km/h 7.4 km/h 62% 0.0 mm FEW
06:29 13.2 °C 6.1 °C 1013.4 hPa SSE 4.7 km/h 7.6 km/h 62% 0.0 mm FEW
06:34 13.2 °C 5.8 °C 1013.4 hPa South 4.7 km/h 10.0 km/h 61% 0.0 mm FEW
06:39 13.3 °C 5.7 °C 1013.4 hPa South 6.9 km/h 11.1 km/h 60% 0.0 mm FEW
06:44 13.4 °C 5.6 °C 1013.4 hPa SSE 6.9 km/h 11.1 km/h 59% 0.0 mm FEW
06:49 13.5 °C 5.6 °C 1013.4 hPa South 7.6 km/h 11.1 km/h 59% 0.0 mm FEW
06:54 13.5 °C 5.6 °C 1013.4 hPa SSW 7.6 km/h 11.1 km/h 59% 0.0 mm FEW
06:59 13.5 °C 5.6 °C 1013.4 hPa SSW 8.7 km/h 8.7 km/h 59% 0.0 mm FEW
07:04 13.5 °C 5.9 °C 1013.4 hPa South 8.7 km/h 9.3 km/h 60% 0.0 mm FEW
07:09 13.5 °C 5.6 °C 1013.4 hPa South 5.8 km/h 8.4 km/h 59% 0.0 mm FEW
07:14 13.5 °C 5.6 °C 1013.4 hPa South 5.8 km/h 9.3 km/h 59% 0.0 mm FEW
07:19 13.5 °C 5.6 °C 1013.4 hPa South 6.4 km/h 9.3 km/h 59% 0.0 mm CLR
07:24 13.4 °C 5.8 °C 1013.4 hPa SSW 6.4 km/h 7.4 km/h 60% 0.0 mm CLR
07:29 13.5 °C 5.9 °C 1013.4 hPa SW 5.8 km/h 7.4 km/h 60% 0.0 mm CLR
07:34 13.6 °C 5.7 °C 1013.4 hPa SSW 5.8 km/h 7.4 km/h 59% 0.0 mm CLR
07:39 13.7 °C 5.8 °C 1013.4 hPa SSW 4.7 km/h 5.8 km/h 59% 0.0 mm CLR
07:44 13.9 °C 6.0 °C 1013.4 hPa SSW 4.7 km/h 6.4 km/h 59% 0.0 mm CLR
07:49 13.9 °C 5.8 °C 1013.4 hPa South 4.7 km/h 7.4 km/h 58% 0.0 mm CLR
07:59 14.2 °C 5.8 °C 1013.8 hPa South 6.4 km/h 9.3 km/h 57% 0.0 mm CLR
08:04 14.4 °C 6.0 °C 1013.8 hPa SSW 6.4 km/h 7.4 km/h 57% 0.0 mm CLR
08:09 14.6 °C 5.9 °C 1013.8 hPa South 5.8 km/h 7.4 km/h 56% 0.0 mm CLR
08:14 14.7 °C 6.0 °C 1013.8 hPa SW 5.8 km/h 11.1 km/h 56% 0.0 mm CLR
08:19 14.7 °C 5.7 °C 1013.8 hPa SSW 6.4 km/h 11.1 km/h 55% 0.0 mm FEW
08:24 14.8 °C 5.8 °C 1013.8 hPa SSW 6.4 km/h 7.4 km/h 55% 0.0 mm FEW
08:29 14.9 °C 5.7 °C 1013.8 hPa SW 6.9 km/h 7.4 km/h 54% 0.0 mm FEW
08:34 15.2 °C 5.9 °C 1013.8 hPa SSW 6.9 km/h 6.9 km/h 54% 0.0 mm FEW
08:39 15.3 °C 5.8 °C 1014.1 hPa SW 5.0 km/h 7.4 km/h 53% 0.0 mm FEW
08:44 15.4 °C 5.6 °C 1014.1 hPa SW 5.0 km/h 7.6 km/h 52% 0.0 mm FEW
08:49 15.6 °C 5.8 °C 1014.1 hPa SW 5.8 km/h 13.0 km/h 52% 0.0 mm FEW
08:54 15.7 °C 5.9 °C 1014.1 hPa SW 5.8 km/h 13.0 km/h 52% 0.0 mm FEW
08:59 15.8 °C 5.7 °C 1014.1 hPa SSW 6.4 km/h 13.0 km/h 51% 0.0 mm FEW
09:04 15.9 °C 5.8 °C 1014.1 hPa South 6.4 km/h 13.0 km/h 51% 0.0 mm FEW
09:09 16.1 °C 5.9 °C 1014.1 hPa SW 9.5 km/h 11.1 km/h 51% 0.0 mm FEW
09:14 16.3 °C 6.1 °C 1014.1 hPa SW 9.5 km/h 11.1 km/h 51% 0.0 mm FEW
09:19 16.6 °C 6.1 °C 1014.1 hPa SW 7.6 km/h 13.0 km/h 50% 0.0 mm FEW
09:24 16.7 °C 5.9 °C 1014.1 hPa SSW 7.6 km/h 14.8 km/h 49% 0.0 mm FEW
09:29 16.7 °C 5.9 °C 1014.1 hPa SSW 8.4 km/h 14.8 km/h 49% 0.0 mm FEW
09:34 16.8 °C 6.0 °C 1014.1 hPa SW 8.4 km/h 13.0 km/h 49% 0.0 mm FEW
09:39 16.9 °C 6.1 °C 1014.1 hPa SW 10.0 km/h 11.1 km/h 49% 0.0 mm FEW
09:44 17.2 °C 6.1 °C 1014.1 hPa SSW 10.0 km/h 13.0 km/h 48% 0.0 mm FEW
09:49 17.3 °C 6.2 °C 1014.1 hPa SSW 9.5 km/h 14.8 km/h 48% 0.0 mm FEW
09:54 17.2 °C 6.4 °C 1014.1 hPa SSW 9.5 km/h 13.0 km/h 49% 0.0 mm FEW
09:59 17.3 °C 6.2 °C 1014.1 hPa SSW 10.3 km/h 13.0 km/h 48% 0.0 mm FEW
10:04 17.4 °C 6.6 °C 1014.1 hPa South 10.3 km/h 11.1 km/h 49% 0.0 mm FEW
10:09 17.7 °C 6.6 °C 1014.1 hPa SW 8.7 km/h 11.1 km/h 48% 0.0 mm FEW
10:14 17.8 °C 6.3 °C 1014.1 hPa South 8.7 km/h 11.1 km/h 47% 0.0 mm FEW
10:19 18.1 °C 6.3 °C 1014.1 hPa SW 8.4 km/h 8.4 km/h 46% 0.0 mm FEW
10:24 18.3 °C 6.2 °C 1013.8 hPa West 8.4 km/h 8.4 km/h 45% 0.0 mm FEW
10:29 18.5 °C 6.0 °C 1013.8 hPa West 5.0 km/h 14.8 km/h 44% 0.0 mm FEW
10:34 18.4 °C 6.2 °C 1013.8 hPa WSW 5.0 km/h 11.1 km/h 45% 0.0 mm FEW
10:39 18.5 °C 6.3 °C 1014.1 hPa SW 6.9 km/h 10.0 km/h 45% 0.0 mm FEW
10:44 18.7 °C 6.2 °C 1014.1 hPa SW 6.9 km/h 9.3 km/h 44% 0.0 mm FEW
10:49 18.6 °C 6.1 °C 1014.1 hPa West 7.6 km/h 13.0 km/h 44% 0.0 mm FEW
10:54 18.7 °C 6.2 °C 1014.1 hPa WSW 7.6 km/h 13.0 km/h 44% 0.0 mm FEW
10:59 18.8 °C 5.9 °C 1014.1 hPa West 8.7 km/h 11.1 km/h 43% 0.0 mm FEW
11:04 18.8 °C 5.9 °C 1014.1 hPa West 9.7 km/h 11.3 km/h 43% 0.0 mm CLR
11:09 18.9 °C 6.0 °C 1014.1 hPa SW 8.0 km/h 14.5 km/h 43% 0.0 mm CLR
11:14 19.0 °C 6.5 °C 1014.1 hPa SSW 8.0 km/h 14.5 km/h 44% 0.0 mm CLR
11:19 19.3 °C 6.4 °C 1014.1 hPa WSW 6.4 km/h 7.4 km/h 43% 0.0 mm FEW
11:24 19.4 °C 6.4 °C 1013.8 hPa WSW 8.0 km/h 12.9 km/h 43% 0.0 mm FEW
11:29 19.2 °C 6.3 °C 1013.8 hPa WSW 8.0 km/h 12.9 km/h 43% 0.0 mm FEW
11:34 19.3 °C 6.1 °C 1013.8 hPa SSW 6.4 km/h 11.1 km/h 42% 0.0 mm FEW
11:39 19.4 °C 6.2 °C 1013.4 hPa ESE 8.4 km/h 8.4 km/h 42% 0.0 mm FEW
11:44 19.7 °C 6.4 °C 1013.4 hPa South 8.0 km/h 11.3 km/h 42% 0.0 mm FEW
11:49 19.8 °C 6.5 °C 1013.4 hPa West 5.8 km/h 14.8 km/h 42% 0.0 mm FEW
11:54 19.8 °C 6.5 °C 1013.1 hPa SE 5.8 km/h 14.8 km/h 42% 0.0 mm FEW
11:59 19.7 °C 6.4 °C 1013.1 hPa ESE 10.0 km/h 13.0 km/h 42% 0.0 mm FEW
12:04 19.8 °C 6.5 °C 1013.1 hPa ESE 9.7 km/h 11.3 km/h 42% 0.0 mm FEW
12:09 20.2 °C 6.8 °C 1012.8 hPa ENE 8.0 km/h 11.3 km/h 42% 0.0 mm FEW
12:14 20.2 °C 6.9 °C 1012.8 hPa SSW 6.4 km/h 13.0 km/h 42% 0.0 mm FEW
12:19 20.2 °C 6.5 °C 1012.8 hPa WNW 6.9 km/h 14.8 km/h 41% 0.0 mm FEW
12:24 20.1 °C 6.4 °C 1012.8 hPa West 8.0 km/h 17.7 km/h 41% 0.0 mm FEW
12:29 20.4 °C 5.6 °C 1012.8 hPa SE 8.7 km/h 16.7 km/h 38% 0.0 mm FEW
12:34 20.4 °C 6.0 °C 1012.8 hPa SSE 8.7 km/h 14.8 km/h 39% 0.0 mm FEW
12:39 20.4 °C 5.6 °C 1012.4 hPa SSW 9.7 km/h 17.7 km/h 38% 0.0 mm FEW
12:44 20.2 °C 5.8 °C 1012.4 hPa WSW 10.0 km/h 14.8 km/h 39% 0.0 mm FEW
12:49 20.4 °C 5.6 °C 1012.4 hPa South 9.5 km/h 13.0 km/h 38% 0.0 mm FEW
12:54 20.6 °C 5.8 °C 1012.1 hPa South 9.7 km/h 19.3 km/h 38% 0.0 mm FEW
12:59 20.7 °C 5.9 °C 1012.1 hPa SSW 8.7 km/h 9.3 km/h 38% 0.0 mm FEW
13:04 20.9 °C 5.7 °C 1012.1 hPa SW 9.7 km/h 19.3 km/h 37% 0.0 mm FEW
13:09 20.8 °C 5.6 °C 1012.1 hPa SW 8.4 km/h 18.5 km/h 37% 0.0 mm FEW
13:14 20.9 °C 6.1 °C 1012.1 hPa East 8.4 km/h 8.4 km/h 38% 0.0 mm FEW
13:19 21.1 °C 5.8 °C 1012.1 hPa SE 8.0 km/h 11.3 km/h 37% 0.0 mm FEW
13:24 20.9 °C 5.7 °C 1011.7 hPa SSW 7.6 km/h 18.5 km/h 37% 0.0 mm FEW
13:29 21.1 °C 5.8 °C 1011.7 hPa SSW 10.0 km/h 11.1 km/h 37% 0.0 mm FEW
13:34 21.4 °C 6.1 °C 1011.7 hPa South 10.0 km/h 11.1 km/h 37% 0.0 mm FEW
13:39 21.6 °C 5.5 °C 1011.4 hPa SSE 7.6 km/h 11.1 km/h 35% 0.0 mm FEW
13:44 21.4 °C 5.3 °C 1011.4 hPa SE 7.6 km/h 13.0 km/h 35% 0.0 mm FEW
13:49 21.3 °C 5.2 °C 1011.4 hPa East 8.7 km/h 9.3 km/h 35% 0.0 mm FEW
13:54 21.4 °C 5.7 °C 1010.7 hPa SE 8.7 km/h 24.1 km/h 36% 0.0 mm FEW
13:59 21.3 °C 5.2 °C 1010.7 hPa South 8.7 km/h 18.5 km/h 35% 0.0 mm FEW
14:04 21.4 °C 5.3 °C 1010.7 hPa SE 8.7 km/h 16.7 km/h 35% 0.0 mm FEW
14:09 21.3 °C 5.6 °C 1010.7 hPa SW 11.1 km/h 14.8 km/h 36% 0.0 mm FEW
14:14 21.6 °C 5.5 °C 1010.7 hPa South 11.1 km/h 20.9 km/h 35% 0.0 mm FEW
14:19 21.5 °C 5.8 °C 1010.7 hPa SSE 11.1 km/h 18.5 km/h 36% 0.0 mm FEW
14:24 21.5 °C 5.4 °C 1010.4 hPa ESE 11.1 km/h 13.0 km/h 35% 0.0 mm FEW
14:29 21.3 °C 5.6 °C 1010.4 hPa ESE 9.5 km/h 16.7 km/h 36% 0.0 mm FEW
14:34 21.3 °C 5.6 °C 1010.4 hPa SSE 9.5 km/h 20.4 km/h 36% 0.0 mm FEW
14:39 21.3 °C 5.6 °C 1010.0 hPa ESE 12.2 km/h 16.4 km/h 36% 0.0 mm FEW
14:44 21.2 °C 5.5 °C 1010.0 hPa East 12.2 km/h 12.2 km/h 36% 0.0 mm FEW
14:49 21.3 °C 5.6 °C 1010.0 hPa ESE 9.5 km/h 14.0 km/h 36% 0.0 mm FEW
14:54 21.3 °C 5.6 °C 1009.7 hPa ENE 9.5 km/h 9.5 km/h 36% 0.0 mm FEW
14:59 21.3 °C 5.6 °C 1009.7 hPa East 6.4 km/h 6.4 km/h 36% 0.0 mm FEW
15:04 21.3 °C 5.6 °C 1009.7 hPa ENE 6.4 km/h 7.4 km/h 36% 0.0 mm FEW
15:09 21.4 °C 6.5 °C 1009.4 hPa East 6.9 km/h 18.5 km/h 38% 0.0 mm FEW
15:14 21.4 °C 7.2 °C 1009.4 hPa SE 6.9 km/h 13.0 km/h 40% 0.0 mm FEW
15:20 21.4 °C 7.6 °C 1009.4 hPa SE 9.5 km/h 25.9 km/h 41% 0.0 mm FEW
15:25 21.2 °C 7.1 °C 1009.4 hPa SE 9.5 km/h 25.9 km/h 40% 0.0 mm FEW
15:30 21.1 °C 7.3 °C 1009.4 hPa SE 15.6 km/h 22.2 km/h 41% 0.0 mm FEW
15:35 21.1 °C 7.7 °C 1009.0 hPa SE 15.6 km/h 25.1 km/h 42% 0.0 mm FEW
15:40 21.2 °C 7.8 °C 1009.0 hPa SE 15.6 km/h 24.1 km/h 42% 0.0 mm FEW
15:45 21.2 °C 7.8 °C 1009.0 hPa SSE 15.6 km/h 20.1 km/h 42% 0.0 mm FEW
15:50 21.1 °C 7.3 °C 1009.0 hPa SSE 15.6 km/h 22.2 km/h 41% 0.0 mm FEW
15:55 21.1 °C 7.7 °C 1008.7 hPa SE 15.6 km/h 27.4 km/h 42% 0.0 mm FEW
16:00 20.8 °C 7.8 °C 1008.7 hPa ESE 18.3 km/h 22.2 km/h 43% 0.0 mm FEW
16:05 20.7 °C 8.0 °C 1008.7 hPa SE 18.3 km/h 24.1 km/h 44% 0.0 mm FEW
16:10 20.8 °C 8.4 °C 1008.7 hPa SSW 16.4 km/h 27.8 km/h 45% 0.0 mm FEW
16:15 20.6 °C 8.6 °C 1008.7 hPa SE 16.4 km/h 22.2 km/h 46% 0.0 mm FEW
16:20 20.3 °C 8.6 °C 1008.7 hPa ESE 18.0 km/h 22.2 km/h 47% 0.0 mm FEW
16:25 20.4 °C 8.4 °C 1008.4 hPa South 18.0 km/h 36.2 km/h 46% 0.0 mm FEW
16:30 20.3 °C 7.9 °C 1008.4 hPa SSE 20.1 km/h 35.2 km/h 45% 0.0 mm FEW
16:35 20.1 °C 7.8 °C 1008.4 hPa SSE 20.1 km/h 37.0 km/h 45% 0.0 mm FEW
16:40 19.9 °C 7.9 °C 1008.4 hPa SE 22.0 km/h 25.9 km/h 46% 0.0 mm FEW
16:45 19.6 °C 7.3 °C 1008.4 hPa South 22.0 km/h 38.9 km/h 45% 0.0 mm FEW
16:50 19.6 °C 8.0 °C 1008.4 hPa SSW 20.9 km/h 25.9 km/h 47% 0.0 mm FEW
16:55 19.3 °C 7.7 °C 1008.0 hPa SSE 20.9 km/h 33.3 km/h 47% 0.0 mm FEW
17:00 19.3 °C 8.0 °C 1008.0 hPa SE 19.8 km/h 24.1 km/h 48% 0.0 mm FEW
17:05 19.2 °C 7.6 °C 1008.4 hPa SSW 19.8 km/h 35.2 km/h 47% 0.0 mm FEW
17:10 19.2 °C 7.6 °C 1008.4 hPa SSE 20.1 km/h 27.8 km/h 47% 0.0 mm FEW
17:15 19.2 °C 7.9 °C 1008.4 hPa SE 20.1 km/h 24.1 km/h 48% 0.0 mm FEW
17:20 19.3 °C 7.7 °C 1008.4 hPa ENE 16.1 km/h 25.9 km/h 47% 0.0 mm FEW
17:25 19.2 °C 7.9 °C 1008.0 hPa SSE 16.1 km/h 29.6 km/h 48% 0.0 mm FEW
17:30 19.2 °C 7.6 °C 1008.0 hPa SE 19.0 km/h 29.6 km/h 47% 0.0 mm FEW
17:35 19.3 °C 7.4 °C 1008.0 hPa SSE 19.0 km/h 35.9 km/h 46% 0.0 mm FEW
17:40 19.3 °C 7.7 °C 1008.0 hPa SSE 20.1 km/h 29.6 km/h 47% 0.0 mm FEW
17:45 19.3 °C 7.4 °C 1008.0 hPa ESE 20.1 km/h 37.0 km/h 46% 0.0 mm FEW
17:50 19.2 °C 7.3 °C 1008.0 hPa SSE 20.1 km/h 27.8 km/h 46% 0.0 mm FEW
17:55 19.1 °C 7.2 °C 1008.0 hPa SE 20.1 km/h 27.8 km/h 46% 0.0 mm FEW
18:00 19.2 °C 6.9 °C 1008.0 hPa SE 20.1 km/h 23.7 km/h 45% 0.0 mm FEW
18:05 19.2 °C 6.7 °C 1008.0 hPa SE 20.1 km/h 25.6 km/h 44% 0.0 mm FEW
18:10 19.1 °C 6.9 °C 1008.0 hPa SSE 18.3 km/h 29.6 km/h 45% 0.0 mm FEW
18:15 19.1 °C 6.9 °C 1008.0 hPa SE 18.3 km/h 18.5 km/h 45% 0.0 mm FEW
18:20 19.2 °C 7.3 °C 1008.0 hPa East 16.4 km/h 16.4 km/h 46% 0.0 mm FEW
18:25 18.9 °C 7.0 °C 1008.0 hPa SSE 16.4 km/h 16.7 km/h 46% 0.0 mm FEW
18:30 18.7 °C 6.5 °C 1008.0 hPa SE 12.2 km/h 25.9 km/h 45% 0.0 mm FEW
18:35 18.6 °C 6.7 °C 1008.0 hPa SSE 12.2 km/h 16.7 km/h 46% 0.0 mm FEW
18:40 18.4 °C 6.6 °C 1008.0 hPa SE 14.8 km/h 29.1 km/h 46% 0.0 mm FEW
18:45 18.3 °C 6.8 °C 1008.0 hPa SSE 14.8 km/h 20.4 km/h 47% 0.0 mm FEW
18:46 18.3 °C 6.8 °C 1008.0 hPa SSW 14.8 km/h 20.4 km/h 47% 0.0 mm FEW
18:51 18.3 °C 6.8 °C 1008.0 hPa South 15.6 km/h 16.7 km/h 47% 0.0 mm FEW
18:56 18.3 °C 6.8 °C 1008.0 hPa SSE 15.6 km/h 15.6 km/h 47% 0.0 mm FEW
19:01 18.3 °C 6.8 °C 1008.0 hPa SE 11.1 km/h 14.8 km/h 47% 0.0 mm FEW
19:06 18.3 °C 6.8 °C 1008.0 hPa SE 11.1 km/h 18.5 km/h 47% 0.0 mm FEW
19:11 18.2 °C 7.0 °C 1008.0 hPa SE 11.1 km/h 22.2 km/h 48% 0.0 mm FEW
19:16 18.1 °C 7.2 °C 1008.0 hPa SE 13.0 km/h 18.5 km/h 49% 0.0 mm FEW
19:21 18.1 °C 7.5 °C 1008.0 hPa SE 13.0 km/h 14.8 km/h 50% 0.0 mm FEW
19:26 17.9 °C 7.6 °C 1008.0 hPa SE 9.5 km/h 11.1 km/h 51% 0.0 mm FEW
19:31 17.7 °C 7.7 °C 1008.0 hPa East 9.5 km/h 13.0 km/h 52% 0.0 mm FEW
19:36 17.5 °C 7.6 °C 1008.0 hPa ESE 8.4 km/h 11.1 km/h 52% 0.0 mm FEW
19:41 17.4 °C 7.7 °C 1008.0 hPa ESE 8.4 km/h 8.4 km/h 53% 0.0 mm FEW
19:46 17.4 °C 7.7 °C 1008.0 hPa ESE 5.0 km/h 7.4 km/h 53% 0.0 mm FEW
19:51 17.3 °C 7.6 °C 1007.7 hPa ESE 5.0 km/h 9.3 km/h 53% 0.0 mm FEW
20:01 17.1 °C 7.4 °C 1007.7 hPa ENE 5.0 km/h 5.6 km/h 53% 0.0 mm FEW
20:06 17.1 °C 7.4 °C 1008.0 hPa NE 2.9 km/h 3.9 km/h 53% 0.0 mm FEW
20:11 16.9 °C 7.8 °C 1008.0 hPa NE 2.9 km/h 5.6 km/h 55% 0.0 mm FEW
20:16 16.9 °C 8.1 °C 1008.0 hPa NW 3.2 km/h 5.6 km/h 56% 0.0 mm FEW
20:19 16.8 °C 7.9 °C 1008.0 hPa NW 3.2 km/h 3.7 km/h 56% 0.0 mm FEW
20:20 16.8 °C 7.7 °C 1008.0 hPa NW 3.2 km/h 3.7 km/h 55% 0.0 mm FEW
20:25 16.7 °C 7.6 °C 1008.0 hPa NW 3.2 km/h 3.7 km/h 55% 0.0 mm FEW
20:26 16.7 °C 7.9 °C 1008.0 hPa NW 2.3 km/h 3.7 km/h 56% 0.0 mm FEW
20:27 16.7 °C 7.9 °C 1008.0 hPa NW 2.3 km/h 4.7 km/h 56% 0.0 mm FEW
20:29 16.7 °C 7.9 °C 1008.0 hPa WNW 2.3 km/h 3.7 km/h 56% 0.0 mm FEW
20:31 16.7 °C 7.9 °C 1008.0 hPa WNW 2.3 km/h 6.9 km/h 56% 0.0 mm FEW
20:34 16.7 °C 7.9 °C 1008.0 hPa WNW 2.3 km/h 7.4 km/h 56% 0.0 mm FEW
20:38 16.5 °C 7.9 °C 1008.4 hPa NW 4.7 km/h 9.3 km/h 57% 0.0 mm FEW
20:43 16.3 °C 8.0 °C 1008.4 hPa NW 4.7 km/h 11.1 km/h 58% 0.0 mm FEW
20:48 16.2 °C 7.9 °C 1008.4 hPa West 7.6 km/h 10.0 km/h 58% 0.0 mm FEW
20:53 16.1 °C 8.1 °C 1008.4 hPa WNW 7.6 km/h 14.8 km/h 59% 0.0 mm FEW
20:57 15.9 °C 7.9 °C 1008.4 hPa WNW 10.0 km/h 13.0 km/h 59% 0.0 mm FEW
21:02 15.9 °C 7.9 °C 1008.4 hPa West 10.0 km/h 13.7 km/h 59% 0.0 mm FEW
21:03 15.9 °C 7.9 °C 1008.4 hPa West 10.0 km/h 13.0 km/h 59% 0.0 mm FEW
21:06 16.1 °C 7.8 °C 1008.7 hPa WSW 8.4 km/h 11.1 km/h 58% 0.0 mm FEW
21:11 16.3 °C 7.8 °C 1008.7 hPa South 8.4 km/h 8.4 km/h 57% 0.0 mm FEW
21:16 16.4 °C 7.8 °C 1008.7 hPa SSE 5.8 km/h 11.1 km/h 57% 0.0 mm CLR
21:21 16.2 °C 7.9 °C 1009.0 hPa South 5.8 km/h 13.0 km/h 58% 0.0 mm CLR
21:26 16.1 °C 7.8 °C 1009.0 hPa SSW 9.5 km/h 16.7 km/h 58% 0.0 mm FEW
21:31 16.2 °C 7.9 °C 1009.0 hPa SSW 9.5 km/h 18.5 km/h 58% 0.0 mm FEW
21:34 16.2 °C 7.9 °C 1009.0 hPa South 9.5 km/h 13.0 km/h 58% 0.0 mm CLR
21:36 16.2 °C 7.9 °C 1009.4 hPa SW 10.3 km/h 14.8 km/h 58% 0.0 mm CLR
21:41 16.3 °C 7.5 °C 1009.4 hPa SW 10.3 km/h 12.2 km/h 56% 0.0 mm CLR
21:46 16.3 °C 6.9 °C 1009.4 hPa SW 10.0 km/h 11.1 km/h 54% 0.0 mm CLR
21:51 16.4 °C 6.2 °C 1009.7 hPa WSW 10.0 km/h 14.8 km/h 51% 0.0 mm CLR
21:56 16.3 °C 5.3 °C 1009.7 hPa SW 7.6 km/h 13.0 km/h 48% 0.0 mm CLR
22:01 16.3 °C 4.3 °C 1009.7 hPa SW 7.6 km/h 9.3 km/h 45% 0.0 mm CLR
22:06 16.3 °C 4.3 °C 1009.7 hPa WNW 6.4 km/h 11.1 km/h 45% 0.0 mm CLR
22:08 16.3 °C 4.7 °C 1009.7 hPa NW 6.4 km/h 9.3 km/h 46% 0.0 mm CLR
22:11 16.2 °C 5.4 °C 1009.7 hPa WNW 6.4 km/h 11.1 km/h 49% 0.0 mm CLR
22:12 16.2 °C 5.4 °C 1009.7 hPa WNW 6.4 km/h 11.1 km/h 49% 0.0 mm CLR
22:17 15.9 °C 6.1 °C 1009.7 hPa NW 6.9 km/h 11.1 km/h 52% 0.0 mm CLR
22:22 15.8 °C 6.2 °C 1009.4 hPa WNW 6.9 km/h 9.3 km/h 53% 0.0 mm CLR
22:27 15.6 °C 6.1 °C 1009.4 hPa NNW 5.8 km/h 7.4 km/h 53% 0.0 mm CLR
22:32 15.5 °C 5.9 °C 1009.4 hPa WNW 5.8 km/h 7.4 km/h 53% 0.0 mm CLR
22:37 15.4 °C 5.6 °C 1009.4 hPa West 5.0 km/h 5.0 km/h 52% 0.0 mm CLR
22:42 15.3 °C 4.9 °C 1009.4 hPa SW 5.0 km/h 9.3 km/h 50% 0.0 mm CLR
22:47 15.2 °C 5.1 °C 1009.4 hPa WNW 3.9 km/h 3.9 km/h 51% 0.0 mm CLR
22:52 15.2 °C 4.8 °C 1009.4 hPa West 3.9 km/h 7.4 km/h 50% 0.0 mm CLR
22:57 15.2 °C 3.9 °C 1009.4 hPa West 4.7 km/h 9.3 km/h 47% 0.0 mm CLR
23:02 15.2 °C 4.3 °C 1009.4 hPa West 4.7 km/h 7.4 km/h 48% 0.0 mm CLR
23:07 15.1 °C 3.8 °C 1009.4 hPa West 5.8 km/h 7.4 km/h 47% 0.0 mm CLR
23:12 15.1 °C 3.6 °C 1009.4 hPa West 5.8 km/h 7.4 km/h 46% 0.0 mm CLR
23:17 15.1 °C 2.6 °C 1009.4 hPa WSW 5.8 km/h 9.3 km/h 43% 0.0 mm -RA
23:22 15.4 °C 1.8 °C 1009.4 hPa WSW 5.8 km/h 16.7 km/h 40% 0.0 mm -RA
23:27 15.6 °C 1.7 °C 1009.4 hPa West 9.5 km/h 14.8 km/h 39% 0.0 mm -RA
23:32 15.7 °C 1.8 °C 1009.4 hPa WSW 9.5 km/h 16.7 km/h 39% 0.0 mm -RA
23:37 15.6 °C 1.7 °C 1009.4 hPa WSW 9.5 km/h 11.1 km/h 39% 0.0 mm -RA
23:42 15.6 °C 1.3 °C 1009.4 hPa SSW 9.5 km/h 11.1 km/h 38% 0.0 mm -RA
23:47 15.6 °C 1.3 °C 1009.4 hPa SW 8.4 km/h 18.5 km/h 38% 0.0 mm -RA
23:52 15.6 °C 1.3 °C 1009.0 hPa SW 8.4 km/h 20.4 km/h 38% 0.0 mm -RA
23:57 15.7 °C 1.1 °C 1009.0 hPa SW 13.0 km/h 18.5 km/h 37% 0.0 mm FEW
Murcia-Puente Tocinos, España
Compliments of Weather Underground - 2.75 mb

La estación de MeteoMurcia.com, publica sus datos en los siguientes proyectos:

Meteoclimatic www.awekas.at

W3Counter
Web Analytics